Location: Unspecified
(47.6579°N, 23.5637°E)
Time: 12:14:38
(UTC+02:00)

Envisat - Pass Details

Date: 05 December 2021
Orbit: 764 x 766 km, 98.2° (Epoch: 23 January)

Event Time Altitude Azimuth Distance (km) Brightness Sun altitude
Rises 05:13:36 0° 17° (NNE) 3,245 6.4 -26.7°
Reaches altitude 10° 05:15:58 10° 21° (NNE) 2,314 5.6 -26.3°
Maximum altitude 05:21:00 58° 101° (E) 889 3.5 -25.5°
Drops below altitude 10° 05:25:59 10° 180° (S) 2,296 5.5 -24.7°
Sets 05:28:19 0° 184° (S) 3,217 6.3 -24.3°
